Location: Beaver Brook Station
(42.3793°N, 71.2203°W)
Time: 01:44:08
(UTC+00:00)

Cosmos 1455 - Pass Details

Date: 29 October 2020
Orbit: 499 x 521 km, 82.5° (Epoch: 05 December)

Event Time Altitude Azimuth Distance (km) Brightness Sun altitude
Rises 22:35:25 0° 162° (SSE) 2,594 5.7 -10.5°
Reaches altitude 10° 22:37:42 10° 151° (SSE) 1,719 4.6 -10.9°
Maximum altitude 22:40:59 29° 91° (E) 967 3.0 -11.5°
Drops below altitude 10° 22:44:18 10° 30° (NNE) 1,745 4.5 -12.2°
Sets 22:46:38 0° 19° (NNE) 2,641 5.5 -12.6°
